This demonstration page uses our WeatherBlox Daily Observations layout. Learn more.

Left ArrowRight Arrow

39.29038, -76.61219

Hourly Observations for December 6, 2021

Temp ( °F °C ) Dew Point ( °F °C ) Humidity (%) Winds ( mph kmh ) Pressure ( in mb ) Visibility ( mi km ) Precip ( " mm )
12:23 am 00:23 Mostly Cloudy 46 7.8 40 4.4 79 79 N 3 6 30.12 1020 10 16 N/A
12:54 am 00:54 Cloudy 47 8.3 41 5 80 80 N N/A 30.11 1020 10 16 N/A
1:54 am 01:54 Cloudy 47 8.3 41 5 80 80 N N/A 30.07 1018 10 16 N/A
2:49 am 02:49 Cloudy 46 8 39 4 76 76 ESE 5 7 30.05 1018 10 16 N/A
2:54 am 02:54 Mostly Cloudy 47 8.3 40 4.4 77 77 SE 3 6 30.05 1018 10 16 N/A
3:45 am 03:45 Partly Cloudy 45 7.2 40 4.4 83 83 SSE 3 6 30.03 1017 10 16 N/A
3:54 am 03:54 Partly Cloudy 45 7.2 40 4.4 83 83 N N/A 30.01 1016 10 16 N/A
4:54 am 04:54 Mostly Cloudy 45 7.2 39 3.9 80 80 N N/A 29.98 1015 10 16 N/A
5:54 am 05:54 Mostly Cloudy 46 7.8 39 3.9 77 77 N N/A 29.97 1015 10 16 N/A
6:05 am 06:05 Cloudy 46 7.8 39 3.9 77 77 SSE 3 6 29.97 1015 10 16 N/A
6:54 am 06:54 Cloudy 47 8.3 39 3.9 74 74 S 5 7 29.94 1014 10 16 N/A
7:34 am 07:34 Mostly Cloudy 48 8.9 40 4.4 74 74 SSW 5 7 29.93 1014 10 16 N/A
7:54 am 07:54 Mostly Cloudy 48 8.9 40 4.4 74 74 S 3 6 29.92 1013 10 16 N/A
8:36 am 08:36 Mostly Cloudy 50 10 42 5.6 74 74 SSW 6 9 29.91 1013 10 16 N/A
8:54 am 08:54 Mostly Cloudy 52 11.1 43 6.1 72 72 VRB 6 9 29.91 1013 10 16 N/A
9:07 am 09:07 Mostly Cloudy 51 10.6 43 6.1 74 74 S 6 9 29.90 1013 10 16 N/A
9:44 am 09:44 Mostly Cloudy with Light Rain 53 11.7 46 7.8 77 77 SSE 8 13 29.86 1011 10 16 0.00 0.00
9:54 am 09:54 Cloudy 55 12.8 47 8.3 74 74 SSW 8 13 29.87 1011 10 16 0.00 0.00
10:05 am 10:05 Cloudy 56 13.3 48 8.9 75 75 S 10 17 29.86 1011 10 16 N/A
10:54 am 10:54 Mostly Cloudy 60 15.6 51 10.6 72 72 SSW 12 19 29.82 1010 10 16 N/A
11:54 am 11:54 Mostly Cloudy 62 16.7 51 10.6 67 67 SSW 17 28 29.76 1008 10 16 N/A
12:54 pm 12:54 Mostly Cloudy 65 18.3 51 10.6 61 61 S 9 15 29.71 1006 10 16 N/A
1:54 pm 13:54 Mostly Cloudy 69 20.6 51 10.6 53 53 SSW 13 20 29.69 1005 10 16 N/A
2:54 pm 14:54 Cloudy 69 20.6 51 10.6 53 53 SSW 14 22 29.66 1004 10 16 N/A
3:54 pm 15:54 Cloudy 69 20.6 51 10.6 53 53 SSW 9 15 29.64 1004 10 16 N/A
4:54 pm 16:54 Cloudy 69 20.6 52 11.1 55 55 SSW 9 15 29.65 1004 10 16 N/A
5:54 pm 17:54 Cloudy 69 20.6 52 11.1 55 55 SW 12 19 29.66 1004 10 16 N/A
6:54 pm 18:54 Cloudy 68 20 51 10.6 55 55 W 32 52 29.70 1006 10 16 N/A
7:00 pm 19:00 Cloudy 65 18.3 48 8.9 54 54 WNW 30 48 29.72 1006 10 16 N/A
7:54 pm 19:54 Cloudy 56 13.3 29 -1.7 36 36 WNW 28 44 29.80 1009 10 16 N/A
8:54 pm 20:54 Mostly Cloudy 52 11.1 20 -6.7 28 28 WNW 22 35 29.85 1011 10 16 N/A
9:54 pm 21:54 Mostly Cloudy 48 8.9 22 -5.6 36 36 WNW 17 28 29.92 1013 10 16 N/A
10:54 pm 22:54 Partly Cloudy 45 7.2 19 -7.2 35 35 WNW 18 30 29.98 1015 10 16 N/A
11:54 pm 23:54 Mostly Cloudy 41 5 17 -8.3 38 38 NW 13 20 30.04 1017 10 16 N/A

Powered by AerisWeather